Flag for Brazil Weather past 2 weeks in Florianópolis, Santa Catarina, Brazil

Now
48 °F

Passing clouds.


Feels Like: 48 °F
Forecast: 50 / 67 °F
Wind: 2 mph from East

Location: Florianopolis Aeroporto

Current Time: Aug 29, 2014 at 2:45:39 AM

Latest Report: Aug 29, 2014 at 2:00 AM


Visibility: N/A

Pressure: 30.21 "Hg

Humidity: 94%

Dew point: 46 °F

Location of FlorianópolisLocation

Historic Weather in Florianópolis — Graph

°F

Florianópolis temperature yesterday

Maximum temperature yesterday: 63 °F (at 12:00 PM)
Minimum temperature yesterday: 48 °F (at 6:00 AM)
Average temperature yesterday: 57 °F

Past Weeks' High & Low Weather Summary

 TemperatureHumidityPressure
High90 °F (Aug 25, 2:00 PM)100% (Aug 17, 8:00 PM)30.45 "Hg (Aug 17, 8:00 PM)
Low48 °F (Aug 14, 5:00 AM)26% (Aug 25, 2:00 PM)29.71 "Hg (Aug 25, 2:00 PM)
Average64 °F77%30.12 "Hg
* Reported Aug 14 1:00 AM — Aug 29 1:00 AM, Florianópolis, Weather by CustomWeather, © 2014

Note: Actual official high and low records may vary slightly from our data, if they occured in-between our weather recording intervals... More about our weather records

Advertising

Florianópolis weather history for previous 24 hours

 ConditionsComfort  
Time TempWeatherWind HumidityBarometerVisibility
1:00 AM
Aug 29
50 °FPassing clouds.2 mph88%30.21 "HgN/A
12:00 AM52 °FPassing clouds.3 mph82%30.24 "HgN/A
11:00 PM
Aug 28
54 °FPassing clouds.3 mph77%30.21 "HgN/A
10:00 PM55 °FPassing clouds.2 mph77%30.21 "HgN/A
9:00 PM57 °FPassing clouds.5 mph67%30.21 "HgN/A
8:00 PM57 °FPassing clouds.6 mph67%30.18 "HgN/A
7:00 PM57 °FPassing clouds.8 mph67%30.18 "HgN/A
6:00 PM57 °FPassing clouds.9 mph67%30.18 "HgN/A
5:00 PM59 °FPassing clouds.10 mph63%30.15 "HgN/A
4:00 PM61 °FPassing clouds.10 mph59%30.12 "HgN/A
3:00 PM63 °FPassing clouds.10 mph56%30.12 "HgN/A
2:00 PM63 °FPassing clouds.10 mph56%30.15 "HgN/A
1:00 PM63 °FPassing clouds.10 mph59%30.15 "HgN/A
12:00 PM63 °FScattered clouds.6 mph56%30.18 "HgN/A
11:00 AM61 °FPartly sunny.12 mph59%30.18 "HgN/A
10:00 AM61 °FScattered clouds.5 mph55%30.18 "HgN/A
9:00 AM57 °FScattered clouds.7 mph63%30.21 "HgN/A
8:00 AM55 °FPartly sunny.6 mph72%30.18 "HgN/A
7:00 AM52 °FSunny.2 mph82%30.15 "Hg10 mi
6:00 AM48 °FSunny.2 mph94%30.12 "Hg10 mi
5:00 AM50 °FPassing clouds.No wind88%30.09 "HgN/A
4:00 AM54 °FPassing clouds.No wind82%30.09 "HgN/A
3:00 AM55 °FPassing clouds.5 mph72%30.12 "HgN/A
2:00 AM55 °FPassing clouds.5 mph77%30.12 "HgN/A
Weather by CustomWeather, © 2014

See weather overviewHow to use our weather pages